Saint Bonnet de Bellac- Haute Vienne - France
Donnes mto: samedi, 12/05/2012
Date Horaire Temp. E. Hum. E. P.atmo. Pluie Vent Direction Direction Ensoleilleme Solaire P. de rose Temp au vent Rafales
12/05/2012 00:00 16,6 C 78 % 1025,9 hPa 0,0 mm 1,4 km/h (1 Bft) N-NE 22 0 min 0 W/m 12,7 C 16,6 C 6,5 km/h (2 Bft)
12/05/2012 00:10 16,5 C 78 % 1025,8 hPa 0,0 mm 3,6 km/h (1 Bft) N-NE 22 0 min 0 W/m 12,6 C 16,5 C 7,9 km/h (2 Bft)
12/05/2012 00:20 16,4 C 79 % 1025,9 hPa 0,0 mm 5,4 km/h (2 Bft) N-NE 22 0 min 0 W/m 12,7 C 16,4 C 5,4 km/h (2 Bft)
12/05/2012 00:30 16,3 C 79 % 1026,1 hPa 0,0 mm 2,5 km/h (1 Bft) N 360 0 min 0 W/m 12,6 C 16,3 C 7,2 km/h (2 Bft)
12/05/2012 00:40 16,2 C 79 % 1026,2 hPa 0,0 mm 7,2 km/h (2 Bft) N-NE 22 0 min 0 W/m 12,6 C 16,2 C 13,3 km/h (3 Bft)
12/05/2012 00:50 16,1 C 79 % 1026,1 hPa 0,0 mm 7,2 km/h (2 Bft) NE 45 0 min 0 W/m 12,5 C 16,1 C 16,6 km/h (3 Bft)
12/05/2012 01:00 15,9 C 79 % 1026,0 hPa 0,0 mm 5,4 km/h (2 Bft) N-NE 22 0 min 0 W/m 12,3 C 15,9 C 12,6 km/h (3 Bft)
12/05/2012 01:10 15,8 C 78 % 1026,1 hPa 0,0 mm 2,9 km/h (1 Bft) NE 45 0 min 0 W/m 12,0 C 15,8 C 4,0 km/h (1 Bft)
12/05/2012 01:20 15,6 C 78 % 1026,4 hPa 0,0 mm 4,0 km/h (1 Bft) N-NE 22 0 min 0 W/m 11,8 C 15,6 C 7,6 km/h (2 Bft)
12/05/2012 01:30 15,4 C 78 % 1026,5 hPa 0,0 mm 4,3 km/h (1 Bft) N 360 0 min 0 W/m 11,6 C 15,4 C 4,3 km/h (1 Bft)
12/05/2012 01:40 15,2 C 78 % 1026,4 hPa 0,0 mm 10,8 km/h (2 Bft) N-NO 337 0 min 0 W/m 11,4 C 15,2 C 13,3 km/h (3 Bft)
12/05/2012 01:50 14,9 C 78 % 1026,7 hPa 0,0 mm 6,8 km/h (2 Bft) N-NO 337 0 min 0 W/m 11,1 C 14,9 C 12,6 km/h (3 Bft)
12/05/2012 02:00 14,8 C 79 % 1028,2 hPa 0,2 mm 1,8 km/h (1 Bft) NO 315 0 min 0 W/m 11,2 C 14,8 C 1,8 km/h (1 Bft)
12/05/2012 02:10 14,5 C 80 % 1026,6 hPa 0,1 mm 4,0 km/h (1 Bft) E-NE 67 0 min 0 W/m 11,1 C 14,5 C 4,3 km/h (1 Bft)
12/05/2012 02:20 13,9 C 83 % 1024,8 hPa 0,1 mm 11,5 km/h (2 Bft) N-NE 22 0 min 0 W/m 11,1 C 13,9 C 11,5 km/h (2 Bft)
12/05/2012 02:30 13,4 C 83 % 1025,5 hPa 0,0 mm 11,9 km/h (2 Bft) N-NO 337 0 min 0 W/m 10,6 C 13,4 C 18,7 km/h (3 Bft)
12/05/2012 02:40 13,0 C 83 % 1026,4 hPa 0,0 mm 7,6 km/h (2 Bft) NE 45 0 min 0 W/m 10,2 C 13,0 C 12,6 km/h (3 Bft)
12/05/2012 02:50 12,6 C 82 % 1026,5 hPa 0,0 mm 2,9 km/h (1 Bft) N 360 0 min 0 W/m 9,6 C 12,6 C 2,9 km/h (1 Bft)
12/05/2012 03:02 12,4 C 81 % 1026,7 hPa 0,0 mm 6,8 km/h (2 Bft) N-NO 337 0 min 0 W/m 9,2 C 12,4 C 12,2 km/h (2 Bft)
12/05/2012 03:10 12,2 C 81 % 1027,5 hPa 0,0 mm 1,8 km/h (1 Bft) NE 45 0 min 0 W/m 9,0 C 12,2 C 7,2 km/h (2 Bft)
12/05/2012 03:20 12,1 C 81 % 1027,3 hPa 0,1 mm 3,6 km/h (1 Bft) NE 45 0 min 0 W/m 8,9 C 12,1 C 4,3 km/h (1 Bft)
12/05/2012 03:30 11,9 C 81 % 1026,7 hPa 0,0 mm 7,9 km/h (2 Bft) N-NE 22 0 min 0 W/m 8,7 C 11,9 C 11,2 km/h (2 Bft)
12/05/2012 03:40 11,8 C 82 % 1026,3 hPa 0,0 mm 10,1 km/h (2 Bft) E-NE 67 0 min 0 W/m 8,8 C 11,8 C 19,4 km/h (3 Bft)
12/05/2012 03:50 11,6 C 82 % 1026,7 hPa 0,0 mm 11,2 km/h (2 Bft) N-NE 22 0 min 0 W/m 8,6 C 11,6 C 14,0 km/h (3 Bft)
12/05/2012 04:00 11,4 C 82 % 1027,1 hPa 0,0 mm 2,5 km/h (1 Bft) E-NE 67 0 min 0 W/m 8,4 C 11,4 C 6,8 km/h (2 Bft)
12/05/2012 04:10 11,3 C 83 % 1027,2 hPa 0,0 mm 4,3 km/h (1 Bft) N-NE 22 0 min 0 W/m 8,5 C 11,3 C 7,6 km/h (2 Bft)
12/05/2012 04:20 11,3 C 83 % 1027,1 hPa 0,0 mm 5,8 km/h (2 Bft) N-NE 22 0 min 0 W/m 8,5 C 11,3 C 7,2 km/h (2 Bft)
12/05/2012 04:30 11,3 C 83 % 1027,1 hPa 0,0 mm 13,7 km/h (3 Bft) E-NE 67 0 min 0 W/m 8,5 C 11,3 C 16,6 km/h (3 Bft)
12/05/2012 04:40 11,3 C 84 % 1026,7 hPa 0,0 mm 6,8 km/h (2 Bft) N-NE 22 0 min 0 W/m 8,7 C 11,3 C 10,1 km/h (2 Bft)
12/05/2012 04:50 11,3 C 83 % 1026,9 hPa 0,0 mm 4,7 km/h (1 Bft) N-NE 22 0 min 0 W/m 8,5 C 11,3 C 9,0 km/h (2 Bft)
12/05/2012 05:00 11,3 C 84 % 1027,0 hPa 0,0 mm 6,5 km/h (2 Bft) E-NE 67 0 min 0 W/m 8,7 C 11,3 C 8,3 km/h (2 Bft)
12/05/2012 05:10 11,3 C 84 % 1026,9 hPa 0,0 mm 8,6 km/h (2 Bft) E 90 0 min 0 W/m 8,7 C 11,3 C 10,8 km/h (2 Bft)
12/05/2012 05:20 11,3 C 84 % 1026,9 hPa 0,0 mm 5,4 km/h (2 Bft) N-NE 22 0 min 0 W/m 8,7 C 11,3 C 5,4 km/h (2 Bft)
12/05/2012 05:30 11,3 C 84 % 1027,1 hPa 0,0 mm 10,1 km/h (2 Bft) N-NE 22 0 min 0 W/m 8,7 C 11,3 C 16,9 km/h (3 Bft)
12/05/2012 05:40 11,3 C 84 % 1026,4 hPa 0,0 mm 4,0 km/h (1 Bft) NE 45 0 min 0 W/m 8,7 C 11,3 C 8,6 km/h (2 Bft)
12/05/2012 05:50 11,3 C 84 % 1026,6 hPa 0,0 mm 4,0 km/h (1 Bft) N-NE 22 0 min 0 W/m 8,7 C 11,3 C 7,2 km/h (2 Bft)
12/05/2012 06:00 11,3 C 84 % 1026,9 hPa 0,0 mm 4,7 km/h (1 Bft) NE 45 0 min 0 W/m 8,7 C 11,3 C 4,7 km/h (1 Bft)
12/05/2012 06:10 11,3 C 84 % 1026,9 hPa 0,0 mm 4,0 km/h (1 Bft) N 360 0 min 0 W/m 8,7 C 11,3 C 9,7 km/h (2 Bft)
12/05/2012 06:20 11,3 C 84 % 1026,9 hPa 0,0 mm 10,8 km/h (2 Bft) NE 45 0 min 0 W/m 8,7 C 11,3 C 13,3 km/h (3 Bft)
12/05/2012 06:30 11,2 C 84 % 1027,0 hPa 0,0 mm 4,0 km/h (1 Bft) N-NE 22 0 min 0 W/m 8,6 C 11,2 C 4,0 km/h (1 Bft)
12/05/2012 06:40 11,1 C 84 % 1027,1 hPa 0,0 mm 4,7 km/h (1 Bft) NE 45 0 min 0 W/m 8,5 C 11,1 C 9,7 km/h (2 Bft)
12/05/2012 06:50 11,0 C 85 % 1027,2 hPa 0,0 mm 6,8 km/h (2 Bft) N-NE 22 0 min 0 W/m 8,6 C 11,0 C 11,9 km/h (2 Bft)
12/05/2012 07:00 10,9 C 85 % 1027,4 hPa 0,0 mm 3,2 km/h (1 Bft) NE 45 0 min 0 W/m 8,5 C 10,9 C 7,9 km/h (2 Bft)
12/05/2012 07:10 10,8 C 85 % 1027,6 hPa 0,0 mm 6,8 km/h (2 Bft) N 360 0 min 0 W/m 8,4 C 10,8 C 11,9 km/h (2 Bft)
12/05/2012 07:20 10,8 C 85 % 1027,4 hPa 0,0 mm 7,6 km/h (2 Bft) E-NE 67 0 min 0 W/m 8,4 C 10,8 C 10,4 km/h (2 Bft)
12/05/2012 07:30 10,8 C 85 % 1027,7 hPa 0,0 mm 9,4 km/h (2 Bft) N-NO 337 0 min 0 W/m 8,4 C 10,8 C 9,4 km/h (2 Bft)
12/05/2012 07:40 10,8 C 86 % 1027,6 hPa 0,1 mm 7,9 km/h (2 Bft) N-NE 22 0 min 0 W/m 8,6 C 10,8 C 13,3 km/h (3 Bft)
12/05/2012 07:50 10,6 C 86 % 1027,7 hPa 0,0 mm 4,3 km/h (1 Bft) N 360 0 min 0 W/m 8,4 C 10,6 C 9,7 km/h (2 Bft)
12/05/2012 08:00 10,6 C 86 % 1028,2 hPa 0,0 mm 10,8 km/h (2 Bft) N-NO 337 0 min 0 W/m 8,4 C 10,6 C 13,7 km/h (3 Bft)
12/05/2012 08:10 10,5 C 86 % 1028,1 hPa 0,0 mm 4,3 km/h (1 Bft) N-NO 337 0 min 0 W/m 8,3 C 10,5 C 4,3 km/h (1 Bft)
12/05/2012 08:20 10,5 C 87 % 1028,7 hPa 0,0 mm 5,8 km/h (2 Bft) N-NE 22 0 min 0 W/m 8,4 C 10,5 C 10,8 km/h (2 Bft)
12/05/2012 08:30 10,6 C 87 % 1028,4 hPa 0,0 mm 7,2 km/h (2 Bft) E-NE 67 0 min 0 W/m 8,5 C 10,6 C 9,0 km/h (2 Bft)
12/05/2012 08:40 10,6 C 87 % 1028,4 hPa 0,0 mm 7,9 km/h (2 Bft) NE 45 0 min 0 W/m 8,5 C 10,6 C 7,9 km/h (2 Bft)
12/05/2012 08:50 10,6 C 87 % 1028,4 hPa 0,1 mm 3,2 km/h (1 Bft) N-NE 22 0 min 0 W/m 8,5 C 10,6 C 4,3 km/h (1 Bft)
12/05/2012 09:00 10,6 C 87 % 1028,4 hPa 0,0 mm 7,2 km/h (2 Bft) NE 45 0 min 0 W/m 8,5 C 10,6 C 11,5 km/h (2 Bft)
12/05/2012 09:10 10,8 C 87 % 1028,6 hPa 0,0 mm 4,3 km/h (1 Bft) NE 45 0 min 0 W/m 8,7 C 10,8 C 4,3 km/h (1 Bft)
12/05/2012 09:20 11,1 C 87 % 1028,6 hPa 0,0 mm 12,2 km/h (2 Bft) N-NE 22 0 min 0 W/m 9,0 C 11,1 C 15,1 km/h (3 Bft)
12/05/2012 09:30 11,3 C 87 % 1028,5 hPa 0,0 mm 9,0 km/h (2 Bft) N-NE 22 0 min 0 W/m 9,2 C 11,3 C 16,2 km/h (3 Bft)
12/05/2012 09:40 11,6 C 86 % 1028,6 hPa 0,0 mm 7,9 km/h (2 Bft) N-NE 22 0 min 0 W/m 9,3 C 11,6 C 13,0 km/h (3 Bft)
12/05/2012 09:50 12,0 C 85 % 1028,8 hPa 0,0 mm 11,9 km/h (2 Bft) N-NE 22 0 min 0 W/m 9,6 C 12,0 C 22,0 km/h (4 Bft)
12/05/2012 10:00 12,3 C 83 % 1028,9 hPa 0,0 mm 7,6 km/h (2 Bft) N-NE 22 0 min 0 W/m 9,5 C 12,3 C 13,0 km/h (3 Bft)
12/05/2012 10:10 12,6 C 82 % 1028,9 hPa 0,0 mm 9,7 km/h (2 Bft) E-NE 67 0 min 0 W/m 9,6 C 12,6 C 11,9 km/h (2 Bft)
12/05/2012 10:20 13,1 C 80 % 1029,1 hPa 0,0 mm 12,2 km/h (2 Bft) NE 45 0 min 0 W/m 9,7 C 13,1 C 14,8 km/h (3 Bft)
12/05/2012 10:30 13,6 C 79 % 1029,4 hPa 0,0 mm 9,7 km/h (2 Bft) N-NE 22 0 min 0 W/m 10,0 C 13,6 C 14,0 km/h (3 Bft)
12/05/2012 10:40 14,3 C 77 % 1029,6 hPa 0,0 mm 9,7 km/h (2 Bft) E-NE 67 0 min 0 W/m 10,3 C 14,3 C 16,2 km/h (3 Bft)
12/05/2012 10:50 14,8 C 73 % 1029,4 hPa 0,0 mm 10,1 km/h (2 Bft) N 360 0 min 0 W/m 10,0 C 14,8 C 16,6 km/h (3 Bft)
12/05/2012 11:00 15,1 C 70 % 1029,5 hPa 0,0 mm 12,6 km/h (3 Bft) E-NE 67 0 min 0 W/m 9,7 C 15,1 C 21,2 km/h (4 Bft)
12/05/2012 11:10 15,3 C 70 % 1029,3 hPa 0,0 mm 9,7 km/h (2 Bft) E-NE 67 0 min 0 W/m 9,9 C 15,3 C 12,2 km/h (2 Bft)
12/05/2012 11:20 15,4 C 71 % 1029,4 hPa 0,0 mm 13,3 km/h (3 Bft) NE 45 0 min 0 W/m 10,2 C 15,4 C 16,6 km/h (3 Bft)
12/05/2012 11:30 15,6 C 72 % 1029,6 hPa 0,0 mm 7,2 km/h (2 Bft) N 360 0 min 0 W/m 10,6 C 15,6 C 10,1 km/h (2 Bft)
12/05/2012 11:40 16,0 C 71 % 1029,6 hPa 0,0 mm 13,7 km/h (3 Bft) N-NE 22 0 min 0 W/m 10,7 C 16,0 C 18,7 km/h (3 Bft)
12/05/2012 11:50 16,3 C 69 % 1029,7 hPa 0,0 mm 8,6 km/h (2 Bft) NE 45 0 min 0 W/m 10,6 C 16,3 C 11,9 km/h (2 Bft)
12/05/2012 12:00 16,4 C 66 % 1029,5 hPa 0,0 mm 14,8 km/h (3 Bft) NE 45 0 min 0 W/m 10,0 C 16,4 C 14,8 km/h (3 Bft)
12/05/2012 12:10 16,5 C 65 % 1029,8 hPa 0,0 mm 11,9 km/h (2 Bft) N 360 0 min 0 W/m 9,9 C 16,5 C 15,1 km/h (3 Bft)
12/05/2012 12:20 16,8 C 66 % 1029,9 hPa 0,0 mm 9,0 km/h (2 Bft) NE 45 0 min 0 W/m 10,4 C 16,8 C 13,3 km/h (3 Bft)
12/05/2012 12:30 17,1 C 65 % 1029,8 hPa 0,0 mm 7,9 km/h (2 Bft) N-NE 22 0 min 0 W/m 10,5 C 17,1 C 16,6 km/h (3 Bft)
12/05/2012 12:40 17,3 C 63 % 1029,9 hPa 0,0 mm 10,1 km/h (2 Bft) N-NE 22 0 min 0 W/m 10,2 C 17,3 C 16,6 km/h (3 Bft)
12/05/2012 12:50 17,4 C 62 % 1029,9 hPa 0,0 mm 9,0 km/h (2 Bft) N-NE 22 0 min 0 W/m 10,0 C 17,4 C 12,2 km/h (2 Bft)
12/05/2012 13:00 17,7 C 59 % 1029,8 hPa 0,0 mm 9,7 km/h (2 Bft) NE 45 0 min 0 W/m 9,6 C 17,7 C 13,7 km/h (3 Bft)
12/05/2012 13:10 17,7 C 59 % 1029,8 hPa 0,0 mm 10,1 km/h (2 Bft) N 360 0 min 0 W/m 9,6 C 17,7 C 15,1 km/h (3 Bft)
12/05/2012 13:20 17,8 C 61 % 1029,6 hPa 0,0 mm 11,9 km/h (2 Bft) N-NE 22 0 min 0 W/m 10,2 C 17,8 C 20,9 km/h (4 Bft)
12/05/2012 13:30 17,8 C 60 % 1029,5 hPa 0,0 mm 12,2 km/h (2 Bft) N 360 0 min 0 W/m 9,9 C 17,8 C 12,2 km/h (2 Bft)
12/05/2012 13:40 17,9 C 61 % 1029,6 hPa 0,0 mm 13,0 km/h (3 Bft) N 360 0 min 0 W/m 10,3 C 17,9 C 22,3 km/h (4 Bft)
12/05/2012 13:50 18,1 C 62 % 1029,6 hPa 0,0 mm 9,7 km/h (2 Bft) NE 45 0 min 0 W/m 10,7 C 18,1 C 18,7 km/h (3 Bft)
12/05/2012 14:00 18,3 C 58 % 1029,6 hPa 0,0 mm 14,0 km/h (3 Bft) NE 45 0 min 0 W/m 9,9 C 18,3 C 24,8 km/h (4 Bft)
12/05/2012 14:10 18,2 C 57 % 1029,6 hPa 0,0 mm 14,8 km/h (3 Bft) N-NE 22 0 min 0 W/m 9,5 C 18,2 C 22,3 km/h (4 Bft)
12/05/2012 14:20 18,3 C 58 % 1029,6 hPa 0,0 mm 9,4 km/h (2 Bft) E-NE 67 0 min 0 W/m 9,9 C 18,3 C 14,0 km/h (3 Bft)
12/05/2012 14:30 18,5 C 60 % 1029,7 hPa 0,0 mm 11,5 km/h (2 Bft) E-NE 67 0 min 0 W/m 10,6 C 18,5 C 20,9 km/h (4 Bft)
12/05/2012 14:40 18,6 C 59 % 1029,7 hPa 0,0 mm 10,1 km/h (2 Bft) E-NE 67 0 min 0 W/m 10,4 C 18,6 C 10,1 km/h (2 Bft)
12/05/2012 14:50 18,6 C 59 % 1029,7 hPa 0,0 mm 14,0 km/h (3 Bft) NE 45 0 min 0 W/m 10,4 C 18,6 C 15,1 km/h (3 Bft)
12/05/2012 15:00 18,4 C 57 % 1029,9 hPa 0,0 mm 14,4 km/h (3 Bft) NE 45 0 min 0 W/m 9,7 C 18,4 C 17,3 km/h (3 Bft)
12/05/2012 15:10 18,0 C 55 % 1029,8 hPa 0,0 mm 15,1 km/h (3 Bft) E-NE 67 0 min 0 W/m 8,8 C 18,0 C 16,6 km/h (3 Bft)
12/05/2012 15:20 17,9 C 55 % 1029,6 hPa 0,0 mm 15,5 km/h (3 Bft) E-NE 67 0 min 0 W/m 8,7 C 17,9 C 16,9 km/h (3 Bft)
12/05/2012 15:30 18,0 C 55 % 1029,3 hPa 0,0 mm 7,9 km/h (2 Bft) N-NE 22 0 min 0 W/m 8,8 C 18,0 C 10,4 km/h (2 Bft)
12/05/2012 15:40 18,0 C 55 % 1029,4 hPa 0,0 mm 11,5 km/h (2 Bft) N 360 0 min 0 W/m 8,8 C 18,0 C 14,4 km/h (3 Bft)
12/05/2012 15:50 18,1 C 54 % 1029,3 hPa 0,0 mm 18,0 km/h (3 Bft) N 360 0 min 0 W/m 8,6 C 18,1 C 25,2 km/h (4 Bft)
12/05/2012 16:00 18,1 C 57 % 1029,3 hPa 0,0 mm 12,2 km/h (2 Bft) N-NE 22 0 min 0 W/m 9,4 C 18,1 C 16,6 km/h (3 Bft)
12/05/2012 16:10 18,1 C 58 % 1029,2 hPa 0,0 mm 6,5 km/h (2 Bft) NE 45 0 min 0 W/m 9,7 C 18,1 C 9,0 km/h (2 Bft)
12/05/2012 16:20 18,2 C 56 % 1029,1 hPa 0,0 mm 10,8 km/h (2 Bft) N-NE 22 0 min 0 W/m 9,3 C 18,2 C 13,7 km/h (3 Bft)
12/05/2012 16:30 18,0 C 56 % 1029,1 hPa 0,0 mm 12,6 km/h (3 Bft) N-NE 22 0 min 0 W/m 9,1 C 18,0 C 13,7 km/h (3 Bft)
12/05/2012 16:40 17,8 C 57 % 1029,1 hPa 0,0 mm 5,0 km/h (1 Bft) N-NE 22 0 min 0 W/m 9,2 C 17,8 C 5,0 km/h (1 Bft)
12/05/2012 16:50 17,8 C 54 % 1029,0 hPa 0,0 mm 14,0 km/h (3 Bft) NE 45 0 min 0 W/m 8,4 C 17,8 C 16,6 km/h (3 Bft)
12/05/2012 17:00 17,6 C 55 % 1028,9 hPa 0,0 mm 11,2 km/h (2 Bft) N-NE 22 0 min 0 W/m 8,5 C 17,6 C 15,8 km/h (3 Bft)
12/05/2012 17:10 17,6 C 57 % 1028,8 hPa 0,0 mm 15,5 km/h (3 Bft) N-NE 22 0 min 0 W/m 9,0 C 17,6 C 15,8 km/h (3 Bft)
12/05/2012 17:20 17,9 C 58 % 1028,8 hPa 0,0 mm 10,4 km/h (2 Bft) E 90 0 min 0 W/m 9,5 C 17,9 C 10,4 km/h (2 Bft)
12/05/2012 17:30 17,9 C 55 % 1028,9 hPa 0,0 mm 10,4 km/h (2 Bft) NE 45 0 min 0 W/m 8,7 C 17,9 C 18,7 km/h (3 Bft)
12/05/2012 17:40 17,8 C 55 % 1028,8 hPa 0,0 mm 11,9 km/h (2 Bft) NE 45 0 min 0 W/m 8,6 C 17,8 C 19,4 km/h (3 Bft)
12/05/2012 17:50 17,9 C 55 % 1028,7 hPa 0,0 mm 6,1 km/h (2 Bft) E 90 0 min 0 W/m 8,7 C 17,9 C 6,1 km/h (2 Bft)
12/05/2012 18:00 18,1 C 53 % 1028,8 hPa 0,0 mm 14,0 km/h (3 Bft) NE 45 0 min 0 W/m 8,4 C 18,1 C 20,9 km/h (4 Bft)
12/05/2012 18:10 17,8 C 54 % 1028,8 hPa 0,0 mm 16,2 km/h (3 Bft) N-NE 22 0 min 0 W/m 8,4 C 17,8 C 21,6 km/h (4 Bft)
12/05/2012 18:20 17,8 C 55 % 1028,5 hPa 0,0 mm 10,4 km/h (2 Bft) N-NE 22 0 min 0 W/m 8,6 C 17,8 C 15,8 km/h (3 Bft)
12/05/2012 18:30 17,7 C 55 % 1028,5 hPa 0,0 mm 9,0 km/h (2 Bft) N 360 0 min 0 W/m 8,5 C 17,7 C 10,4 km/h (2 Bft)
12/05/2012 18:40 17,6 C 55 % 1028,5 hPa 0,0 mm 7,9 km/h (2 Bft) N-NE 22 0 min 0 W/m 8,5 C 17,6 C 7,9 km/h (2 Bft)
12/05/2012 18:50 17,5 C 55 % 1028,5 hPa 0,0 mm 5,8 km/h (2 Bft) E-SE 112 0 min 0 W/m 8,4 C 17,5 C 7,2 km/h (2 Bft)
12/05/2012 19:00 17,4 C 54 % 1028,5 hPa 0,0 mm 11,2 km/h (2 Bft) E-NE 67 0 min 0 W/m 8,0 C 17,4 C 13,3 km/h (3 Bft)
12/05/2012 19:10 17,1 C 56 % 1028,5 hPa 0,0 mm 6,5 km/h (2 Bft) NE 45 0 min 0 W/m 8,3 C 17,1 C 13,7 km/h (3 Bft)
12/05/2012 19:20 16,9 C 56 % 1028,2 hPa 0,0 mm 8,3 km/h (2 Bft) N 360 0 min 0 W/m 8,1 C 16,9 C 15,1 km/h (3 Bft)
12/05/2012 19:30 17,1 C 55 % 1028,3 hPa 0,0 mm 7,9 km/h (2 Bft) E-NE 67 0 min 0 W/m 8,0 C 17,1 C 10,1 km/h (2 Bft)
12/05/2012 19:40 17,1 C 55 % 1028,2 hPa 0,0 mm 6,8 km/h (2 Bft) E-NE 67 0 min 0 W/m 8,0 C 17,1 C 9,7 km/h (2 Bft)
12/05/2012 19:50 16,9 C 55 % 1028,2 hPa 0,0 mm 8,3 km/h (2 Bft) NE 45 0 min 0 W/m 7,8 C 16,9 C 13,0 km/h (3 Bft)
12/05/2012 20:00 16,8 C 54 % 1028,2 hPa 0,0 mm 10,4 km/h (2 Bft) N-NE 22 0 min 0 W/m 7,4 C 16,8 C 17,3 km/h (3 Bft)
12/05/2012 20:10 16,6 C 54 % 1028,3 hPa 0,0 mm 6,8 km/h (2 Bft) NE 45 0 min 0 W/m 7,3 C 16,6 C 10,4 km/h (2 Bft)
12/05/2012 20:20 16,2 C 56 % 1028,4 hPa 0,0 mm 3,2 km/h (1 Bft) NE 45 0 min 0 W/m 7,4 C 16,2 C 4,3 km/h (1 Bft)
12/05/2012 20:30 15,8 C 56 % 1028,3 hPa 0,0 mm 5,8 km/h (2 Bft) N-NE 22 0 min 0 W/m 7,0 C 15,8 C 10,1 km/h (2 Bft)
12/05/2012 20:40 15,5 C 56 % 1028,3 hPa 0,0 mm 12,2 km/h (2 Bft) NE 45 0 min 0 W/m 6,8 C 15,5 C 14,8 km/h (3 Bft)
12/05/2012 20:50 15,3 C 56 % 1028,5 hPa 0,0 mm 5,8 km/h (2 Bft) E-NE 67 0 min 0 W/m 6,6 C 15,3 C 10,8 km/h (2 Bft)
12/05/2012 21:00 15,1 C 56 % 1028,5 hPa 0,0 mm 7,2 km/h (2 Bft) NE 45 0 min 0 W/m 6,4 C 15,1 C 10,4 km/h (2 Bft)
12/05/2012 21:10 14,8 C 57 % 1028,5 hPa 0,0 mm 6,8 km/h (2 Bft) NE 45 0 min 0 W/m 6,4 C 14,8 C 9,4 km/h (2 Bft)
12/05/2012 21:20 14,4 C 57 % 1028,6 hPa 0,0 mm 6,8 km/h (2 Bft) NE 45 0 min 0 W/m 6,0 C 14,4 C 8,3 km/h (2 Bft)
12/05/2012 21:30 14,1 C 58 % 1028,5 hPa 0,0 mm 3,6 km/h (1 Bft) NE 45 0 min 0 W/m 6,0 C 14,1 C 4,3 km/h (1 Bft)
12/05/2012 21:40 13,8 C 59 % 1028,6 hPa 0,0 mm 4,3 km/h (1 Bft) N-NE 22 0 min 0 W/m 5,9 C 13,8 C 8,3 km/h (2 Bft)
12/05/2012 21:50 13,4 C 59 % 1028,6 hPa 0,0 mm 4,7 km/h (1 Bft) N-NE 22 0 min 0 W/m 5,6 C 13,4 C 8,6 km/h (2 Bft)
12/05/2012 22:00 13,2 C 60 % 1028,8 hPa 0,0 mm 5,0 km/h (1 Bft) N-NE 22 0 min 0 W/m 5,6 C 13,2 C 12,6 km/h (3 Bft)
12/05/2012 22:10 12,9 C 61 % 1028,9 hPa 0,0 mm 9,7 km/h (2 Bft) E-NE 67 0 min 0 W/m 5,6 C 12,9 C 16,6 km/h (3 Bft)
12/05/2012 22:20 12,8 C 61 % 1029,0 hPa 0,0 mm 6,8 km/h (2 Bft) N-NE 22 0 min 0 W/m 5,5 C 12,8 C 11,9 km/h (2 Bft)
12/05/2012 22:30 12,5 C 62 % 1029,1 hPa 0,0 mm 9,4 km/h (2 Bft) N-NE 22 0 min 0 W/m 5,4 C 12,5 C 16,6 km/h (3 Bft)
12/05/2012 22:40 12,3 C 63 % 1029,2 hPa 0,0 mm 7,9 km/h (2 Bft) N-NE 22 0 min 0 W/m 5,5 C 12,3 C 7,9 km/h (2 Bft)
12/05/2012 22:50 12,2 C 63 % 1029,2 hPa 0,0 mm 11,2 km/h (2 Bft) NE 45 0 min 0 W/m 5,4 C 12,2 C 14,8 km/h (3 Bft)
12/05/2012 23:00 12,0 C 63 % 1029,2 hPa 0,0 mm 7,6 km/h (2 Bft) N-NE 22 0 min 0 W/m 5,2 C 12,0 C 8,3 km/h (2 Bft)
12/05/2012 23:10 11,8 C 64 % 1029,4 hPa 0,0 mm 5,0 km/h (1 Bft) E-NE 67 0 min 0 W/m 5,2 C 11,8 C 7,9 km/h (2 Bft)
12/05/2012 23:20 11,7 C 64 % 1029,4 hPa 0,0 mm 5,4 km/h (2 Bft) NE 45 0 min 0 W/m 5,1 C 11,7 C 10,8 km/h (2 Bft)
12/05/2012 23:30 11,5 C 65 % 1029,3 hPa 0,0 mm 7,9 km/h (2 Bft) NE 45 0 min 0 W/m 5,2 C 11,5 C 10,1 km/h (2 Bft)
12/05/2012 23:40 11,3 C 66 % 1029,2 hPa 0,0 mm 6,8 km/h (2 Bft) E-NE 67 0 min 0 W/m 5,2 C 11,3 C 10,8 km/h (2 Bft)
12/05/2012 23:50 11,1 C 66 % 1029,0 hPa 0,0 mm 3,6 km/h (1 Bft) N-NE 22 0 min 0 W/m 5,0 C 11,1 C 7,6 km/h (2 Bft)
_ Min-Heure 08:20 18:00 02:20 - 00:00 - - - - 23:50 08:20 02:00
Minimum _ 10,5 C 53 % 1024,8 hPa - 1,4 km/h (1 Bft) - - - - 5,0 C 10,5 C 1,8 km/h (1 Bft)
_ Max-Heure 14:50 09:30 15:00 02:00 15:50 - - 23:50 23:50 00:20 14:50 15:50
Maximum _ 18,6 C 87 % 1029,9 hPa 0,2 mm 18,0 km/h
N (3 Bft)
- - 0 min 0 W/m 12,7 C 18,6 C 25,2 km/h
N (4 Bft)
Moyenne _ 14,5 C 70 % 1028,3 hPa #0,7 mm 8,4 km/h (2 Bft) N-NE - #0 min. 0 W/m 8,9 C 14,5 C 12,1 km/h (2 Bft)
Saint Bonnet de Bellac- Haute Vienne - France